Location: Estes Park
(40.3770°N, 105.5210°W)
Time: 06:32:57
(UTC-07:00)

Vanguard 2 - All Passes

Search period start: 11 December 2017 00:00
Search period end: 21 December 2017 00:00
Orbit: 553 x 2939 km, 32.9° (Epoch: 10 December)

Date Brightness Start Highest point End Pass type
(mag) Time Alt. Az. Time Alt. Az. Time Alt. Az.
11 Dec - 13:29:37 10° SSE 13:29:54 10° SSE 13:30:11 10° SSE daylight
11 Dec - 15:33:22 10° SW 15:38:37 23° SSE 15:42:30 10° ESE daylight
11 Dec - 17:42:11 10° WSW 17:46:37 32° S 17:50:13 10° ESE visible
11 Dec - 19:51:11 10° WSW 19:54:14 21° SSW 19:57:20 10° SE visible
12 Dec - 13:43:20 10° S 13:48:01 15° SSE 13:51:45 10° SE daylight
12 Dec - 15:50:53 10° SW 15:56:39 29° S 16:00:46 10° ESE daylight
12 Dec - 18:00:13 10° WSW 18:04:35 32° S 18:08:10 10° ESE visible
12 Dec - 20:09:39 10° WSW 20:12:08 16° SSW 20:14:39 10° SSE visible
13 Dec - 13:59:45 10° SSW 14:06:07 21° SSE 14:10:46 10° ESE daylight
13 Dec - 16:08:38 10° WSW 16:14:39 33° S 16:18:53 10° ESE daylight
13 Dec - 18:18:19 10° WSW 18:22:30 29° S 18:26:00 10° SE visible
13 Dec - 20:28:51 10° SW 20:29:59 11° SSW 20:31:09 10° S visible
14 Dec - 12:11:01 10° S 12:14:57 12° SSE 12:18:20 10° SE daylight
14 Dec - 14:16:50 10° SW 14:24:13 27° SSE 14:29:16 10° ESE daylight
14 Dec - 16:26:34 10° WSW 16:32:40 37° S 16:36:54 10° ESE daylight
14 Dec - 18:36:31 10° WSW 18:40:24 25° SSW 18:43:42 10° SE visible
15 Dec - 12:26:09 10° SSW 12:33:05 18° SSE 12:38:23 10° ESE daylight
15 Dec - 14:34:18 10° SW 14:42:17 33° S 14:47:32 10° ESE daylight
15 Dec - 16:44:36 10° WSW 16:50:38 38° S 16:54:51 10° ESE daylight
15 Dec - 18:54:53 10° WSW 18:58:14 20° SSW 19:01:11 10° SSE visible
16 Dec - 12:42:32 10° SSW 12:51:13 24° SSE 12:57:20 10° ESE daylight
16 Dec - 14:52:03 10° WSW 15:00:20 39° S 15:05:38 10° ESE daylight
16 Dec - 17:02:44 10° WSW 17:08:35 37° S 17:12:43 10° ESE visible
16 Dec - 19:13:34 10° WSW 19:16:01 14° SSW 19:18:16 10° S visible
17 Dec - 10:53:32 10° S 10:59:30 14° SSE 11:04:30 10° ESE daylight
17 Dec - 12:59:31 10° SW 13:09:20 31° SSE 13:15:51 10° ESE daylight
17 Dec - 15:09:57 10° WSW 15:18:23 43° S 15:23:41 10° ESE daylight
17 Dec - 17:20:56 10° WSW 17:26:29 33° SSW 17:30:29 10° SE visible
18 Dec - 11:08:38 10° SSW 11:17:37 20° SSE 11:24:28 10° ESE daylight
18 Dec - 13:16:54 10° SW 13:27:27 37° SSE 13:34:08 10° ESE daylight
18 Dec - 15:28:01 10° WSW 15:36:24 45° S 15:41:39 10° ESE daylight
18 Dec - 17:39:14 10° WSW 17:44:19 27° SSW 17:48:07 10° SE visible
19 Dec - 11:24:53 10° SSW 11:35:45 26° SSE 11:43:30 10° ESE daylight
19 Dec - 13:34:35 10° SW 13:45:31 43° S 13:52:17 10° E daylight
19 Dec - 15:46:11 10° WSW 15:54:23 45° S 15:59:33 10° ESE daylight
19 Dec - 17:57:41 10° WSW 18:02:05 21° SSW 18:05:31 10° SSE visible
20 Dec - 09:36:23 10° S 09:43:31 15° SE 09:49:39 10° ESE daylight
20 Dec - 11:41:43 10° SW 11:53:51 33° SSE 12:02:04 10° E daylight
20 Dec - 13:52:29 10° WSW 14:03:35 48° S 14:10:20 10° ESE daylight
20 Dec - 16:04:23 10° W 16:12:19 42° SSW 16:17:23 10° ESE daylight
20 Dec - 18:16:28 10° WSW 18:19:45 16° SSW 18:22:31 10° S visible
